ARABSAT-7B (BADR-8)

Last updated on Thu Aug 13 2026 00:03:03 GMT+0000 (Coordinated Universal Time)

1 56757U 23075A 26224.57720815 .00000127 00000+0 00000+0 0 9996 2 56757 0.0749 29.8046 0002455 359.7066 165.3061 1.00272675 11681
UTC large
Height (km)
Speed (km/s)
/
Latitude / Longitude
Inclination (degrees)
Orbital Period (minutes)
Azimuth
Elevation
Range (km)
Doppler Factor

Next 0 passes for location: London (51.5072 / 0.1276)

No passes found over London.
ARABSAT-7B (BADR-8)